[{"OBJECT_NAME":"BEIDOU-3 G3 (C61)","OBJECT_ID":"2020-040A","EPOCH":"2026-09-12T07:35:10.620096","MEAN_MOTION":1.00269676,"ECCENTRICITY":0.00026444,"INCLINATION":2.6569,"RA_OF_ASC_NODE":67.4129,"ARG_OF_PERICENTER":281.4958,"MEAN_ANOMALY":226.759,"EPHEMERIS_TYPE":0,"CLASSIFICATION_TYPE":"U","NORAD_CAT_ID":45807,"ELEMENT_SET_NO":999,"REV_AT_EPOCH":2294,"BSTAR":0,"MEAN_MOTION_DOT":-0.00000367,"MEAN_MOTION_DDOT":0},{"OBJECT_NAME":"BEIDOU-3 G4 (C62)","OBJECT_ID":"2023-066A","EPOCH":"2026-09-12T07:43:39.806400","MEAN_MOTION":1.00271116,"ECCENTRICITY":0.00052568,"INCLINATION":0.44,"RA_OF_ASC_NODE":356.6797,"ARG_OF_PERICENTER":198.7514,"MEAN_ANOMALY":51.8772,"EPHEMERIS_TYPE":0,"CLASSIFICATION_TYPE":"U","NORAD_CAT_ID":56564,"ELEMENT_SET_NO":999,"REV_AT_EPOCH":1226,"BSTAR":0,"MEAN_MOTION_DOT":-0.00000295,"MEAN_MOTION_DDOT":0},{"OBJECT_NAME":"BEIDOU-3 M28 (C50)","OBJECT_ID":"2023-207A","EPOCH":"2026-09-12T06:52:26.879808","MEAN_MOTION":1.86229677,"ECCENTRICITY":0.00007109,"INCLINATION":55.8347,"RA_OF_ASC_NODE":59.3693,"ARG_OF_PERICENTER":44.96,"MEAN_ANOMALY":315.0622,"EPHEMERIS_TYPE":0,"CLASSIFICATION_TYPE":"U","NORAD_CAT_ID":58654,"ELEMENT_SET_NO":999,"REV_AT_EPOCH":1846,"BSTAR":0,"MEAN_MOTION_DOT":-4.5e-7,"MEAN_MOTION_DDOT":0},{"OBJECT_NAME":"BEIDOU-3 M26 (C48)","OBJECT_ID":"2023-207B","EPOCH":"2026-09-12T02:00:52.112736","MEAN_MOTION":1.86229584,"ECCENTRICITY":0.00009182,"INCLINATION":55.8364,"RA_OF_ASC_NODE":59.3628,"ARG_OF_PERICENTER":252.9433,"MEAN_ANOMALY":107.0639,"EPHEMERIS_TYPE":0,"CLASSIFICATION_TYPE":"U","NORAD_CAT_ID":58655,"ELEMENT_SET_NO":999,"REV_AT_EPOCH":1844,"BSTAR":0,"MEAN_MOTION_DOT":-4.3e-7,"MEAN_MOTION_DDOT":0},{"OBJECT_NAME":"BEIDOU-3 M25 (C47)","OBJECT_ID":"2024-168B","EPOCH":"2026-09-11T08:44:35.394720","MEAN_MOTION":1.86230059,"ECCENTRICITY":0.00045218,"INCLINATION":54.3933,"RA_OF_ASC_NODE":299.2402,"ARG_OF_PERICENTER":288.6681,"MEAN_ANOMALY":66.5723,"EPHEMERIS_TYPE":0,"CLASSIFICATION_TYPE":"U","NORAD_CAT_ID":61186,"ELEMENT_SET_NO":999,"REV_AT_EPOCH":1338,"BSTAR":0,"MEAN_MOTION_DOT":-5.1e-7,"MEAN_MOTION_DDOT":0},{"OBJECT_NAME":"BEIDOU-3 M27 (C49)","OBJECT_ID":"2024-168C","EPOCH":"2026-09-11T19:19:42.947616","MEAN_MOTION":1.86230254,"ECCENTRICITY":0.00007278,"INCLINATION":54.3885,"RA_OF_ASC_NODE":299.2074,"ARG_OF_PERICENTER":333.0111,"MEAN_ANOMALY":92.9908,"EPHEMERIS_TYPE":0,"CLASSIFICATION_TYPE":"U","NORAD_CAT_ID":61187,"ELEMENT_SET_NO":999,"REV_AT_EPOCH":1087,"BSTAR":0,"MEAN_MOTION_DOT":-5.4e-7,"MEAN_MOTION_DDOT":0}]